Location: Newark
(15.7835°S, 47.8992°W)
Time: 05:14:41
(UTC+00:00)

Hubble Space Telescope - Visible Passes

Search period start: 29 September 2020 00:00
Search period end: 09 October 2020 00:00
Orbit: 536 x 540 km, 28.5° (Epoch: 28 September)

Date Brightness Start Highest point End Pass type
(mag) Time Alt. Az. Time Alt. Az. Time Alt. Az.
29 Sep 1.8 22:23:45 10° SW 22:27:31 32° SSE 22:28:03 31° SE visible
30 Sep 1.5 22:12:55 10° SW 22:16:51 40° SSE 22:18:05 31° ESE visible
01 Oct 1.1 22:02:06 10° SW 22:06:10 51° SSE 22:08:09 27° E visible
02 Oct 0.8 21:51:20 10° WSW 21:55:28 68° SSE 21:58:17 20° ENE visible
02 Oct 3.9 23:33:14 10° W 23:33:38 12° W 23:33:38 12° W visible
03 Oct 0.8 21:40:35 10° WSW 21:44:45 89° NNW 21:48:28 13° ENE visible
03 Oct 3.7 23:23:05 10° WNW 23:23:49 13° WNW 23:23:49 13° WNW visible
04 Oct 1.1 21:29:54 10° WSW 21:34:01 65° NNW 21:38:07 10° NE visible
04 Oct 3.6 23:13:22 10° NW 23:14:03 11° NW 23:14:03 11° NW visible
